Location: Carbonia
(39.1670°N, 8.5170°E)
Time: 09:33:26
(UTC+02:00)

ISS - Visible Passes

Search period start: 08 May 2021 00:00
Search period end: 18 May 2021 00:00
Orbit: 418 x 421 km, 51.6° (Epoch: 08 May)

Date Brightness Start Highest point End Pass type
(mag) Time Alt. Az. Time Alt. Az. Time Alt. Az.
08 May -0.5 02:49:24 14° N 02:49:24 14° N 02:50:21 10° NNE visible
09 May -0.5 03:37:39 10° NNW 03:38:15 10° N 03:38:51 10° N visible
09 May -0.7 05:14:26 10° NNW 05:16:15 14° NNE 05:18:05 10° NE visible
10 May -0.5 02:50:23 11° NNW 02:50:31 11° N 02:51:44 10° N visible
10 May -0.5 04:27:18 10° NNW 04:28:33 12° N 04:29:49 10° NNE visible
11 May -0.2 02:04:21 11° NNE 02:04:21 11° NNE 02:04:35 10° NNE visible
11 May -0.3 03:40:11 10° N 03:40:50 10° N 03:41:28 10° NNE visible
11 May -1.1 05:15:52 10° NNW 05:18:37 23° NNE 05:21:23 10° E visible
12 May -0.7 04:28:40 10° NNW 04:31:00 17° NNE 04:33:20 10° ENE visible
13 May -0.2 02:05:02 10° N 02:05:20 10° N 02:05:54 10° N visible
13 May -0.5 03:41:30 10° NNW 03:43:20 14° NNE 03:45:10 10° NE visible
13 May -2.8 05:17:28 10° NW 05:20:47 51° NE 05:24:04 10° ESE visible
14 May -0.1 01:18:38 10° N 01:18:38 10° N 01:18:47 10° N visible
14 May -0.3 02:54:22 10° N 02:55:37 12° N 02:56:54 10° NNE visible
14 May -1.9 04:30:10 10° NW 04:33:15 32° NNE 04:36:21 10° E visible
14 May -2.2 21:13:36 10° S 21:15:53 17° SE 21:18:11 10° E visible
14 May -2.8 22:49:10 10° WSW 22:52:25 48° NW 22:55:41 10° NE visible
15 May -0.4 00:28:08 10° NW 00:29:53 13° NNW 00:31:38 10° NNE visible
15 May -0.1 02:07:15 10° N 02:07:54 10° N 02:08:32 10° NNE visible
15 May -1.2 03:42:55 10° NNW 03:45:42 23° NNE 03:48:27 10° E visible
15 May -3.6 05:19:23 10° WNW 05:22:40 50° SW 05:25:57 10° SSE visible
15 May -3.8 22:01:37 10° SW 22:04:58 83° NW 22:08:21 10° NE visible
15 May -0.7 23:39:56 10° WNW 23:42:12 17° NNW 23:44:28 10° NNE visible
16 May -0.8 02:55:44 10° NNW 02:58:04 17° NNE 03:00:25 10° ENE visible
16 May -3.8 04:31:53 10° NW 04:35:17 89° NE 04:38:39 10° SE visible
16 May -3.7 21:14:17 10° SW 21:17:33 54° SE 21:20:52 10° ENE visible
16 May -1.1 22:51:53 10° WNW 22:54:34 22° NNW 22:57:17 10° NNE visible
17 May -0.1 00:31:51 10° NNW 00:32:24 10° N 00:32:56 10° N visible
17 May -0.5 02:08:34 10° NNW 02:10:24 14° NNE 02:12:13 10° NE visible
17 May -3.0 03:45:05 14° NW 03:47:49 52° NE 03:51:08 10° ESE visible
17 May -2.1 05:22:10 10° W 05:24:20 16° SW 05:26:30 10° S visible
17 May -1.7 22:03:58 10° W 22:07:00 31° NNW 22:10:02 10° NE visible
17 May -0.3 23:43:28 10° NNW 23:44:39 11° N 23:45:49 10° N visible
